BCS3789 EETN-EDDP

Flight info

Callsign BCS3789
Flight time 2h 1m
Altitude 38000
Route LONSA DCT GORPI Z80 TILAV L87 PESEL DCT RAKIT/N0460F350 M725 OBANI/N0458F360 Z36 POGAB/N0454F280 Z36 BEBKU T950 LUXBO LUXBO1V
Aircraft B738/M-SDE2E3FGHIRWXY/LB1

Departure

Time 2026-05-03 21:14
Airport Lennart Meri Tallinn Airport (EETN)

Arrival

Time 2026-05-03 23:15
Airport Leipzig/Halle Airport (EDDP)
Time Latitude Longitude Altitude Speed Heading
2026-05-03 20:53 59.41728 24.80942 138 ft 0 kts
2026-05-03 21:05 59.41684 24.80940 138 ft 8 kts
2026-05-03 21:05 59.41663 24.80933 138 ft 2 kts 75°
2026-05-03 21:05 59.41662 24.80923 138 ft 0 kts 92°
2026-05-03 21:08 59.41664 24.80964 138 ft 7 kts 87°
2026-05-03 21:09 59.41664 24.81098 138 ft 13 kts 101°
2026-05-03 21:09 59.41590 24.81173 138 ft 14 kts 175°
2026-05-03 21:09 59.41504 24.81249 138 ft 14 kts 108°
2026-05-03 21:09 59.41503 24.81448 138 ft 17 kts 91°
2026-05-03 21:10 59.41501 24.81704 138 ft 21 kts 90°
2026-05-03 21:10 59.41502 24.82015 138 ft 25 kts 90°
2026-05-03 21:10 59.41500 24.82376 138 ft 28 kts 91°
2026-05-03 21:10 59.41500 24.82763 138 ft 28 kts 90°
2026-05-03 21:11 59.41497 24.83129 139 ft 26 kts 91°
2026-05-03 21:11 59.41498 24.83472 139 ft 24 kts 88°
2026-05-03 21:11 59.41498 24.83793 139 ft 23 kts 90°
2026-05-03 21:11 59.41497 24.84100 139 ft 22 kts 91°
2026-05-03 21:12 59.41496 24.84399 139 ft 22 kts 90°
2026-05-03 21:12 59.41497 24.84687 140 ft 22 kts 89°
2026-05-03 21:12 59.41479 24.84968 140 ft 21 kts 137°
2026-05-03 21:12 59.41343 24.84969 140 ft 18 kts 214°
2026-05-03 21:13 59.41322 24.84769 139 ft 17 kts 272°
2026-05-03 21:13 59.41323 24.84286 138 ft 67 kts 270°
2026-05-03 21:13 59.41327 24.82930 137 ft 130 kts 270°
2026-05-03 21:13 59.41330 24.80861 382 ft 158 kts 270°
2026-05-03 21:14 59.41343 24.78640 1037 ft 166 kts 270°
2026-05-03 21:14 59.41274 24.76423 1880 ft 163 kts 255°
2026-05-03 21:14 59.40667 24.74465 2279 ft 185 kts 233°
2026-05-03 21:14 59.39853 24.72303 2517 ft 209 kts 236°
2026-05-03 21:15 59.38975 24.69862 2779 ft 226 kts 236°
2026-05-03 21:15 59.38045 24.67265 3120 ft 244 kts 236°
2026-05-03 21:15 59.37047 24.64464 3698 ft 253 kts 236°
2026-05-03 21:15 59.36044 24.61637 4558 ft 252 kts 236°
2026-05-03 21:16 59.35041 24.58808 5369 ft 254 kts 237°
2026-05-03 21:16 59.34028 24.55940 6130 ft 257 kts 237°
2026-05-03 21:16 59.33022 24.53088 6894 ft 257 kts 237°
2026-05-03 21:16 59.32008 24.50209 7688 ft 257 kts 237°
2026-05-03 21:17 59.30989 24.47320 8474 ft 258 kts 237°
2026-05-03 21:17 59.30313 24.45401 8979 ft 259 kts 238°
2026-05-03 21:17 59.28941 24.41513 9981 ft 260 kts 238°
2026-05-03 21:17 59.27886 24.38519 10316 ft 278 kts 238°
2026-05-03 21:18 59.26748 24.35290 10482 ft 299 kts 237°
2026-05-03 21:18 59.25528 24.31837 10651 ft 319 kts 237°
2026-05-03 21:18 59.24247 24.28217 10795 ft 337 kts 237°
2026-05-03 21:18 59.22874 24.24350 10951 ft 354 kts 237°
2026-05-03 21:19 59.21451 24.20352 11359 ft 361 kts 237°
2026-05-03 21:19 59.20011 24.16313 11967 ft 363 kts 237°
2026-05-03 21:19 59.18565 24.12266 12589 ft 365 kts 237°
2026-05-03 21:19 59.17105 24.08181 13209 ft 368 kts 237°
2026-05-03 21:20 59.15634 24.04071 13803 ft 372 kts 237°
2026-05-03 21:20 59.14152 23.99937 14406 ft 373 kts 237°
2026-05-03 21:20 59.12659 23.95779 15044 ft 374 kts 237°
2026-05-03 21:20 59.11187 23.91682 15622 ft 376 kts 237°
2026-05-03 21:21 59.09681 23.87505 16211 ft 378 kts 238°
2026-05-03 21:21 59.08163 23.83310 16778 ft 381 kts 237°
2026-05-03 21:21 59.06552 23.79201 17354 ft 384 kts 234°
2026-05-03 21:21 59.04848 23.75187 17924 ft 386 kts 233°
2026-05-03 21:22 59.03109 23.71188 18439 ft 389 kts 233°
2026-05-03 21:22 59.01356 23.67176 18904 ft 391 kts 233°
2026-05-03 21:22 58.99593 23.63133 19361 ft 394 kts 233°
2026-05-03 21:22 58.97848 23.59116 19803 ft 396 kts 233°
2026-05-03 21:23 58.96072 23.55014 20246 ft 398 kts 233°
2026-05-03 21:23 58.94287 23.50886 20676 ft 401 kts 233°
2026-05-03 21:23 58.92494 23.46737 21118 ft 403 kts 234°
2026-05-03 21:23 58.90691 23.42570 21595 ft 403 kts 233°
2026-05-03 21:24 58.88882 23.38390 21902 ft 408 kts 233°
2026-05-03 21:24 58.87048 23.34158 22214 ft 412 kts 233°
2026-05-03 21:24 58.85201 23.29905 22631 ft 414 kts 233°
2026-05-03 21:24 58.83347 23.25644 23026 ft 415 kts 233°
2026-05-03 21:25 58.81483 23.21368 23388 ft 418 kts 233°
2026-05-03 21:25 58.79629 23.17123 23690 ft 420 kts 233°
2026-05-03 21:25 58.77742 23.12810 24000 ft 422 kts 233°
2026-05-03 21:25 58.75846 23.08484 24315 ft 423 kts 233°
2026-05-03 21:26 58.73943 23.04151 24606 ft 425 kts 233°
2026-05-03 21:26 58.72031 22.99805 24894 ft 427 kts 233°
2026-05-03 21:26 58.70106 22.95438 25183 ft 428 kts 233°
2026-05-03 21:26 58.68170 22.91053 25356 ft 432 kts 233°
2026-05-03 21:27 58.66237 22.86683 25526 ft 436 kts 233°
2026-05-03 21:27 58.64270 22.82244 25854 ft 436 kts 233°
2026-05-03 21:27 58.62305 22.77826 26326 ft 433 kts 233°
2026-05-03 21:27 58.60361 22.73461 26796 ft 430 kts 233°
2026-05-03 21:28 58.58418 22.69106 27174 ft 429 kts 233°
2026-05-03 21:28 58.56476 22.64758 27526 ft 429 kts 233°
2026-05-03 21:28 58.54534 22.60419 27915 ft 428 kts 234°
2026-05-03 21:28 58.52598 22.56099 28333 ft 427 kts 234°
2026-05-03 21:29 58.50665 22.51795 28754 ft 426 kts 234°
2026-05-03 21:29 58.48760 22.47562 29128 ft 425 kts 234°
2026-05-03 21:29 58.46829 22.43275 29369 ft 427 kts 234°
2026-05-03 21:29 58.44881 22.38957 29536 ft 431 kts 234°
2026-05-03 21:30 58.42924 22.34631 29931 ft 429 kts 234°
2026-05-03 21:30 58.40979 22.30342 30383 ft 425 kts 234°
2026-05-03 21:30 58.39052 22.26106 30921 ft 419 kts 234°
2026-05-03 21:30 58.37152 22.21939 31437 ft 414 kts 234°
2026-05-03 21:31 58.35266 22.17800 31737 ft 414 kts 234°
2026-05-03 21:31 58.33399 22.13706 31954 ft 416 kts 234°
2026-05-03 21:31 58.31503 22.09556 32253 ft 415 kts 234°
2026-05-03 21:31 58.29613 22.05430 32639 ft 412 kts 234°
2026-05-03 21:32 58.27733 22.01335 33017 ft 410 kts 235°
2026-05-03 21:32 58.25859 21.97260 33261 ft 410 kts 234°
2026-05-03 21:32 58.23980 21.93176 33457 ft 411 kts 234°
2026-05-03 21:32 58.22097 21.89093 33739 ft 411 kts 234°
2026-05-03 21:33 58.20218 21.85030 34068 ft 408 kts 234°
2026-05-03 21:33 58.18346 21.80988 34305 ft 408 kts 234°
2026-05-03 21:33 58.16498 21.77002 34463 ft 409 kts 234°
2026-05-03 21:33 58.14618 21.72955 34640 ft 410 kts 234°
2026-05-03 21:34 58.12736 21.68911 34885 ft 409 kts 234°
2026-05-03 21:34 58.10857 21.64880 35118 ft 408 kts 234°
2026-05-03 21:34 58.08977 21.60854 35298 ft 409 kts 234°
2026-05-03 21:34 58.07092 21.56824 35481 ft 409 kts 234°
2026-05-03 21:35 58.05207 21.52803 35647 ft 409 kts 233°
2026-05-03 21:35 58.03318 21.48778 35793 ft 410 kts 233°
2026-05-03 21:35 58.01448 21.44800 35957 ft 411 kts 233°
2026-05-03 21:35 57.99553 21.40777 36181 ft 410 kts 233°
2026-05-03 21:36 57.97660 21.36768 36404 ft 409 kts 233°
2026-05-03 21:36 57.95769 21.32768 36580 ft 409 kts 233°
2026-05-03 21:36 57.93874 21.28766 36746 ft 409 kts 233°
2026-05-03 21:36 57.91980 21.24773 36933 ft 409 kts 232°
2026-05-03 21:37 57.90084 21.20781 37098 ft 409 kts 232°
2026-05-03 21:37 57.88185 21.16792 37270 ft 409 kts 232°
2026-05-03 21:37 57.86289 21.12815 37510 ft 408 kts 232°
2026-05-03 21:37 57.84423 21.08909 37700 ft 407 kts 232°
2026-05-03 21:38 57.82531 21.04955 37803 ft 407 kts 232°
2026-05-03 21:38 57.80641 21.01010 37855 ft 407 kts 232°
2026-05-03 21:38 57.76840 20.93095 37868 ft 409 kts 232°
2026-05-03 21:39 57.73027 20.85187 37867 ft 409 kts 232°
2026-05-03 21:39 57.69230 20.77337 37864 ft 410 kts 231°
2026-05-03 21:40 57.65405 20.69456 37861 ft 410 kts 231°
2026-05-03 21:40 57.61572 20.61585 37818 ft 409 kts 231°
2026-05-03 21:41 57.57746 20.53755 37849 ft 409 kts 231°
2026-05-03 21:41 57.53904 20.45919 37858 ft 410 kts 231°
2026-05-03 21:42 57.50085 20.38155 37870 ft 410 kts 231°
2026-05-03 21:42 57.46223 20.30330 37858 ft 411 kts 231°
2026-05-03 21:43 57.42357 20.22524 37851 ft 411 kts 231°
2026-05-03 21:43 57.38478 20.14717 37857 ft 411 kts 231°
2026-05-03 21:44 57.34615 20.06970 37877 ft 412 kts 231°
2026-05-03 21:44 57.30716 19.99176 37863 ft 413 kts 231°
2026-05-03 21:45 57.26811 19.91395 37859 ft 413 kts 230°
2026-05-03 21:45 57.22900 19.83630 37846 ft 413 kts 230°
2026-05-03 21:46 57.19009 19.75930 37857 ft 412 kts 230°
2026-05-03 21:46 57.15098 19.68217 37861 ft 412 kts 230°
2026-05-03 21:47 57.11182 19.60518 37848 ft 412 kts 230°
2026-05-03 21:47 57.07266 19.52845 37847 ft 411 kts 230°
2026-05-03 21:48 57.03349 19.45194 37862 ft 411 kts 230°
2026-05-03 21:48 56.99458 19.37621 37862 ft 410 kts 230°
2026-05-03 21:49 56.95540 19.30019 37858 ft 410 kts 230°
2026-05-03 21:49 56.91622 19.22441 37858 ft 410 kts 230°
2026-05-03 21:50 56.87699 19.14880 37866 ft 410 kts 230°
2026-05-03 21:50 56.83768 19.07327 37867 ft 410 kts 230°
2026-05-03 21:51 56.79854 18.99832 37868 ft 411 kts 229°
2026-05-03 21:51 56.75903 18.92290 37866 ft 411 kts 229°
2026-05-03 21:52 56.71950 18.84769 37857 ft 411 kts 229°
2026-05-03 21:52 56.67988 18.77255 37871 ft 412 kts 229°
2026-05-03 21:53 56.64014 18.69743 37867 ft 412 kts 229°
2026-05-03 21:53 56.60060 18.62293 37867 ft 413 kts 229°
2026-05-03 21:54 56.56067 18.54792 37863 ft 413 kts 229°
2026-05-03 21:54 56.52064 18.47299 37865 ft 414 kts 229°
2026-05-03 21:55 56.48055 18.39818 37870 ft 414 kts 229°
2026-05-03 21:55 56.44035 18.32341 37873 ft 415 kts 229°
2026-05-03 21:56 56.40030 18.24915 37872 ft 416 kts 229°
2026-05-03 21:56 56.35989 18.17448 37871 ft 416 kts 229°
2026-05-03 21:57 56.31939 18.09988 37848 ft 416 kts 228°
2026-05-03 21:57 56.27883 18.02540 37887 ft 416 kts 228°
2026-05-03 21:58 56.23856 17.95171 37877 ft 416 kts 228°
2026-05-03 21:58 56.19801 17.87774 37879 ft 415 kts 228°
2026-05-03 21:59 56.15749 17.80404 37875 ft 414 kts 228°
2026-05-03 21:59 56.11698 17.73061 37875 ft 414 kts 228°
2026-05-03 22:00 56.07677 17.65796 37876 ft 413 kts 228°
2026-05-03 22:00 56.03633 17.58511 37877 ft 412 kts 228°
2026-05-03 22:01 55.99593 17.51257 37879 ft 412 kts 228°
2026-05-03 22:01 55.95543 17.44005 37878 ft 412 kts 228°
2026-05-03 22:02 55.91491 17.36775 37877 ft 412 kts 227°
2026-05-03 22:02 55.87461 17.29605 37859 ft 412 kts 227°
2026-05-03 22:03 55.83394 17.22393 37881 ft 413 kts 227°
2026-05-03 22:03 55.79317 17.15186 37881 ft 414 kts 227°
2026-05-03 22:04 55.75215 17.07957 37891 ft 416 kts 227°
2026-05-03 22:04 55.71104 17.00733 37888 ft 417 kts 227°
2026-05-03 22:05 55.66999 16.93546 37881 ft 418 kts 227°
2026-05-03 22:05 55.62861 16.86321 37870 ft 418 kts 227°
2026-05-03 22:06 55.58718 16.79112 37882 ft 418 kts 227°
2026-05-03 22:06 55.55273 16.73134 37878 ft 418 kts 226°
2026-05-03 22:07 55.50454 16.64798 37876 ft 417 kts 226°
2026-05-03 22:07 55.46308 16.57649 37876 ft 417 kts 226°
2026-05-03 22:08 55.42861 16.51723 37863 ft 416 kts 226°
2026-05-03 22:08 55.38715 16.44615 37874 ft 416 kts 226°
2026-05-03 22:09 55.34571 16.37533 37874 ft 415 kts 226°
2026-05-03 22:10 55.28352 16.26944 37871 ft 415 kts 226°
2026-05-03 22:10 55.24231 16.19954 37872 ft 415 kts 226°
2026-05-03 22:11 55.20080 16.12935 37873 ft 414 kts 225°
2026-05-03 22:11 55.15925 16.05931 37877 ft 415 kts 225°
2026-05-03 22:12 55.11766 15.98939 37866 ft 416 kts 225°
2026-05-03 22:12 55.07583 15.91930 37864 ft 417 kts 225°
2026-05-03 22:13 55.03424 15.84982 37868 ft 418 kts 225°
2026-05-03 22:13 54.99222 15.77981 37867 ft 418 kts 225°
2026-05-03 22:14 54.95008 15.70981 37866 ft 419 kts 225°
2026-05-03 22:14 54.90746 15.64057 37861 ft 420 kts 221°
2026-05-03 22:15 54.86123 15.57918 37865 ft 421 kts 219°
2026-05-03 22:15 54.81424 15.51848 37867 ft 421 kts 219°
2026-05-03 22:16 54.76747 15.45743 37862 ft 421 kts 219°
2026-05-03 22:16 54.72085 15.39625 37861 ft 421 kts 219°
2026-05-03 22:17 54.67422 15.33515 37866 ft 420 kts 219°
2026-05-03 22:17 54.62793 15.27466 37870 ft 420 kts 219°
2026-05-03 22:18 54.58130 15.21393 37898 ft 420 kts 219°
2026-05-03 22:18 54.53467 15.15337 37884 ft 419 kts 219°
2026-05-03 22:19 54.48807 15.09301 37888 ft 419 kts 219°
2026-05-03 22:19 54.44144 15.03280 37868 ft 419 kts 219°
2026-05-03 22:20 54.39228 14.98020 37877 ft 423 kts 205°
2026-05-03 22:20 54.33812 14.94082 37877 ft 423 kts 206°
2026-05-03 22:21 54.28434 14.89990 37874 ft 423 kts 207°
2026-05-03 22:21 54.23054 14.85921 37880 ft 424 kts 206°
2026-05-03 22:22 54.17686 14.81896 37886 ft 424 kts 206°
2026-05-03 22:22 54.12283 14.77855 37886 ft 425 kts 206°
2026-05-03 22:23 54.06868 14.73812 37870 ft 425 kts 206°
2026-05-03 22:23 54.01447 14.69776 37880 ft 425 kts 206°
2026-05-03 22:24 53.96028 14.65751 37887 ft 425 kts 206°
2026-05-03 22:24 53.90639 14.61761 37886 ft 425 kts 206°
2026-05-03 22:25 53.85212 14.57754 37876 ft 425 kts 206°
2026-05-03 22:25 53.79785 14.53758 37880 ft 425 kts 206°
2026-05-03 22:26 53.74366 14.49779 37888 ft 425 kts 206°
2026-05-03 22:26 53.68978 14.45833 37884 ft 425 kts 206°
2026-05-03 22:27 53.63556 14.41874 37892 ft 425 kts 206°
2026-05-03 22:27 53.58140 14.37929 37886 ft 424 kts 205°
2026-05-03 22:28 53.52716 14.33989 37892 ft 425 kts 206°
2026-05-03 22:28 53.47754 14.28883 37911 ft 420 kts 220°
2026-05-03 22:29 53.43127 14.22851 37903 ft 422 kts 219°
2026-05-03 22:29 53.38450 14.16922 37883 ft 422 kts 218°
2026-05-03 22:30 53.33754 14.11002 37888 ft 423 kts 218°
2026-05-03 22:30 53.29088 14.05128 37904 ft 423 kts 218°
2026-05-03 22:31 53.24380 13.99212 37905 ft 424 kts 218°
2026-05-03 22:31 53.19532 13.93620 37882 ft 426 kts 205°
2026-05-03 22:31 53.16692 13.92172 37914 ft 429 kts 192°
2026-05-03 22:32 53.13708 13.91773 37887 ft 434 kts 180°
2026-05-03 22:32 53.07691 13.92970 37902 ft 436 kts 175°
2026-05-03 22:33 53.01706 13.94233 37898 ft 437 kts 176°
2026-05-03 22:33 52.95665 13.95406 37904 ft 437 kts 176°
2026-05-03 22:34 52.89627 13.96571 37905 ft 437 kts 176°
2026-05-03 22:34 52.83596 13.97851 37905 ft 437 kts 176°
2026-05-03 22:35 52.77600 13.99117 37905 ft 437 kts 175°
2026-05-03 22:35 52.71576 14.00401 37906 ft 437 kts 175°
2026-05-03 22:36 52.65551 14.01686 37908 ft 436 kts 176°
2026-05-03 22:36 52.59541 14.02961 37913 ft 436 kts 176°
2026-05-03 22:37 52.53572 14.04228 37913 ft 435 kts 176°
2026-05-03 22:37 52.47573 14.05500 37911 ft 435 kts 176°
2026-05-03 22:38 52.41575 14.06767 37903 ft 434 kts 176°
2026-05-03 22:38 52.35577 14.08012 37924 ft 434 kts 176°
2026-05-03 22:39 52.29616 14.09232 37923 ft 435 kts 175°
2026-05-03 22:39 52.23595 14.09980 37910 ft 432 kts 187°
2026-05-03 22:40 52.17711 14.08319 37934 ft 430 kts 193°
2026-05-03 22:40 52.11826 14.06491 37920 ft 431 kts 193°
2026-05-03 22:41 52.05957 14.04737 37926 ft 432 kts 193°
2026-05-03 22:41 52.00043 14.02987 37932 ft 433 kts 193°
2026-05-03 22:42 51.94107 14.01233 37927 ft 434 kts 192°
2026-05-03 22:42 51.88163 13.99479 37931 ft 434 kts 192°
2026-05-03 22:43 51.82219 13.97734 37938 ft 434 kts 192°
2026-05-03 22:43 51.76308 13.96016 37937 ft 435 kts 192°
2026-05-03 22:44 51.70349 13.94283 37946 ft 435 kts 192°
2026-05-03 22:44 51.64408 13.92543 37939 ft 434 kts 192°
2026-05-03 22:45 51.58463 13.90807 37945 ft 434 kts 192°
2026-05-03 22:45 51.52591 13.88928 37929 ft 431 kts 201°
2026-05-03 22:45 51.50009 13.86620 37980 ft 425 kts 221°
2026-05-03 22:46 51.47990 13.83171 37937 ft 424 kts 236°
2026-05-03 22:46 51.46573 13.79045 37952 ft 424 kts 247°
2026-05-03 22:46 51.45767 13.74505 37949 ft 425 kts 262°
2026-05-03 22:47 51.45703 13.64991 37948 ft 428 kts 269°
2026-05-03 22:47 51.45810 13.55430 37941 ft 430 kts 269°
2026-05-03 22:48 51.45865 13.45884 37947 ft 432 kts 268°
2026-05-03 22:48 51.45886 13.36259 37939 ft 432 kts 268°
2026-05-03 22:49 51.45896 13.26618 37939 ft 432 kts 268°
2026-05-03 22:49 51.45901 13.16996 37939 ft 432 kts 268°
2026-05-03 22:50 51.46621 13.07508 37946 ft 436 kts 285°
2026-05-03 22:50 51.47684 13.02915 37471 ft 446 kts 292°
2026-05-03 22:50 51.49227 12.98593 36994 ft 445 kts 300°
2026-05-03 22:50 51.50912 12.94429 36397 ft 443 kts 299°
2026-05-03 22:51 51.52552 12.90252 35806 ft 442 kts 298°
2026-05-03 22:51 51.54163 12.86053 35143 ft 443 kts 298°
2026-05-03 22:51 51.55799 12.81864 34559 ft 443 kts 299°
2026-05-03 22:51 51.57468 12.77770 33902 ft 444 kts 300°
2026-05-03 22:52 51.59177 12.73617 33152 ft 446 kts 300°
2026-05-03 22:52 51.60882 12.69447 32414 ft 446 kts 299°
2026-05-03 22:52 51.62573 12.65265 31693 ft 447 kts 299°
2026-05-03 22:52 51.64246 12.61039 30972 ft 447 kts 296°
2026-05-03 22:53 51.65501 12.56508 30210 ft 442 kts 283°
2026-05-03 22:53 51.66089 12.51690 29366 ft 438 kts 272°
2026-05-03 22:53 51.66102 12.46812 28536 ft 434 kts 263°
2026-05-03 22:53 51.65812 12.41977 27680 ft 434 kts 262°
2026-05-03 22:54 51.65555 12.37204 26818 ft 435 kts 263°
2026-05-03 22:54 51.65323 12.32340 25908 ft 436 kts 264°
2026-05-03 22:54 51.65106 12.27484 25263 ft 432 kts 264°
2026-05-03 22:54 51.64889 12.22689 24610 ft 428 kts 264°
2026-05-03 22:55 51.64667 12.17923 23958 ft 424 kts 264°
2026-05-03 22:55 51.64445 12.13209 23311 ft 420 kts 263°
2026-05-03 22:55 51.64222 12.08538 22584 ft 416 kts 263°
2026-05-03 22:55 51.64001 12.03930 21953 ft 411 kts 263°
2026-05-03 22:56 51.63781 11.99371 21326 ft 406 kts 263°
2026-05-03 22:56 51.63486 11.94949 20701 ft 400 kts 256°
2026-05-03 22:56 51.62428 11.90893 20115 ft 393 kts 235°
2026-05-03 22:56 51.60614 11.87639 19493 ft 392 kts 221°
2026-05-03 22:57 51.58358 11.85187 18851 ft 393 kts 208°
2026-05-03 22:57 51.55817 11.83560 18175 ft 397 kts 197°
2026-05-03 22:57 51.53075 11.82983 17496 ft 405 kts 181°
2026-05-03 22:57 51.50324 11.83980 16987 ft 407 kts 157°
2026-05-03 22:58 51.48011 11.86588 16279 ft 417 kts 135°
2026-05-03 22:58 51.46568 11.90482 16115 ft 412 kts 112°
2026-05-03 22:58 51.46148 11.95051 15862 ft 426 kts 89°
2026-05-03 22:58 51.46854 11.99710 15617 ft 436 kts 66°
2026-05-03 22:59 51.48544 12.03705 15329 ft 431 kts 48°
2026-05-03 22:59 51.50640 12.07082 14701 ft 422 kts 43°
2026-05-03 22:59 51.52775 12.10278 13642 ft 419 kts 45°
2026-05-03 22:59 51.54483 12.14018 12384 ft 416 kts 68°
2026-05-03 23:00 51.55078 12.18436 11647 ft 395 kts 92°
2026-05-03 23:00 51.55035 12.22756 11218 ft 376 kts 94°
2026-05-03 23:00 51.55093 12.26776 11047 ft 358 kts 91°
2026-05-03 23:00 51.55239 12.30698 10890 ft 347 kts 90°
2026-05-03 23:01 51.55410 12.34555 10755 ft 348 kts 90°
2026-05-03 23:01 51.55589 12.38440 10605 ft 347 kts 90°
2026-05-03 23:01 51.55764 12.42245 10444 ft 337 kts 90°
2026-05-03 23:01 51.55933 12.45940 10299 ft 327 kts 90°
2026-05-03 23:02 51.56094 12.49537 10158 ft 317 kts 90°
2026-05-03 23:02 51.56248 12.53017 10023 ft 309 kts 91°
2026-05-03 23:02 51.56395 12.56366 9915 ft 297 kts 91°
2026-05-03 23:02 51.56537 12.59613 9553 ft 291 kts 91°
2026-05-03 23:03 51.56673 12.62809 9274 ft 284 kts 90°
2026-05-03 23:03 51.56807 12.65973 8979 ft 283 kts 90°
2026-05-03 23:03 51.56941 12.69122 8694 ft 282 kts 89°
2026-05-03 23:03 51.57074 12.72258 8400 ft 281 kts 89°
2026-05-03 23:04 51.57205 12.75388 8116 ft 280 kts 89°
2026-05-03 23:04 51.57334 12.78503 7845 ft 279 kts 90°
2026-05-03 23:04 51.57090 12.81490 7562 ft 271 kts 118°
2026-05-03 23:04 51.55930 12.83733 7322 ft 258 kts 149°
2026-05-03 23:05 51.54320 12.84871 7059 ft 251 kts 171°
2026-05-03 23:05 51.52605 12.85063 6799 ft 246 kts 190°
2026-05-03 23:05 51.50986 12.84313 6546 ft 241 kts 205°
2026-05-03 23:05 51.49431 12.83295 6284 ft 241 kts 204°
2026-05-03 23:06 51.47872 12.82298 6023 ft 241 kts 204°
2026-05-03 23:06 51.46323 12.81310 5770 ft 240 kts 205°
2026-05-03 23:06 51.44872 12.80068 5498 ft 235 kts 226°
2026-05-03 23:06 51.44031 12.77954 5350 ft 225 kts 250°
2026-05-03 23:07 51.43614 12.75559 5257 ft 224 kts 263°
2026-05-03 23:07 51.43511 12.73061 5184 ft 226 kts 266°
2026-05-03 23:07 51.43394 12.70526 5083 ft 228 kts 265°
2026-05-03 23:07 51.43341 12.68032 4975 ft 221 kts 269°
2026-05-03 23:08 51.43309 12.65627 4916 ft 209 kts 267°
2026-05-03 23:08 51.43229 12.63349 4738 ft 200 kts 266°
2026-05-03 23:08 51.43132 12.61228 4713 ft 183 kts 265°
2026-05-03 23:08 51.43034 12.59222 4505 ft 176 kts 266°
2026-05-03 23:09 51.42938 12.57309 4290 ft 172 kts 266°
2026-05-03 23:09 51.42846 12.55465 4063 ft 159 kts 267°
2026-05-03 23:09 51.42762 12.53792 3879 ft 142 kts 267°
2026-05-03 23:09 51.42687 12.52287 3697 ft 132 kts 268°
2026-05-03 23:10 51.42615 12.50795 3519 ft 136 kts 267°
2026-05-03 23:10 51.42541 12.49297 3354 ft 135 kts 268°
2026-05-03 23:10 51.42467 12.47809 3172 ft 133 kts 269°
2026-05-03 23:10 51.42396 12.46339 2992 ft 132 kts 269°
2026-05-03 23:11 51.42324 12.44870 2820 ft 134 kts 269°
2026-05-03 23:11 51.42252 12.43397 2646 ft 134 kts 269°
2026-05-03 23:11 51.42180 12.41916 2467 ft 133 kts 268°
2026-05-03 23:11 51.42108 12.40431 2304 ft 134 kts 268°
2026-05-03 23:12 51.42036 12.38937 2113 ft 134 kts 269°
2026-05-03 23:12 51.41965 12.37459 1940 ft 132 kts 269°
2026-05-03 23:12 51.41894 12.35992 1774 ft 133 kts 269°
2026-05-03 23:12 51.41823 12.34493 1583 ft 137 kts 268°
2026-05-03 23:13 51.41749 12.32960 1406 ft 138 kts 268°
2026-05-03 23:13 51.41678 12.31444 1223 ft 140 kts 267°
2026-05-03 23:13 51.41603 12.29861 1038 ft 143 kts 266°
2026-05-03 23:13 51.41519 12.28269 854 ft 144 kts 266°
2026-05-03 23:14 51.41455 12.26662 681 ft 147 kts 265°
2026-05-03 23:14 51.41377 12.25028 490 ft 146 kts 265°
2026-05-03 23:14 51.41316 12.23523 467 ft 123 kts 266°
2026-05-03 23:14 51.41250 12.22364 456 ft 67 kts 265°
2026-05-03 23:15 51.41177 12.21804 453 ft 37 kts 241°
2026-05-03 23:15 51.41053 12.21494 449 ft 22 kts 236°
2026-05-03 23:15 51.40986 12.21339 447 ft 12 kts 170°
2026-05-03 23:15 51.40983 12.21340 448 ft 0 kts 164°